Skip to main content

NOAA/GLERL Met Station at Muskegon, MI

Previous 5 days (top of hour only)
See also Previous 3 Hours (2 minute increments)
Jump down to Data
Switch to [English][Metric]
Zoom: Click and drag, Pan: shift-click and drag, Unzoom: double-click, Unzoom All






Note: Speed = mean wind during 2-minute period at top of hour,
Gust = max wind during 2-minute period at top of hour,
Peak = max wind during entire hour.
• See also 5-day windrose plot


NOAA/GLERL Met Station at Muskegon, MI

Previous 5 days (top of hour only)
See also Previous 3 Hours (2 minute increments)
Jump up to Graphs
Switch to [English][Metric]
                  Wind  Wind  Wind   Air   Dew   Rel     Sta   PAR
                   Spd   Gst   Dir  Temp    Pt   Hum    Pres uE/m2/
YYYY-MM-DD   EDT   kts   kts   deg     F     F     %   in Hg   sec
2017-05-28 23:00  11.1  12.2   202  56.1  55.4  97.4   29.09     2
2017-05-28 22:00  10.5  10.9   198  55.6  54.9  97.5   29.09     2
2017-05-28 21:00   7.4   8.0   194  55.9  54.3  94.0   29.08   102
2017-05-28 20:00   4.9   5.6   199  58.3  54.1  85.8   29.08  1129
2017-05-28 19:00   3.1   3.3   233  56.5  53.6  89.8   29.07  1681
2017-05-28 18:00   4.1   4.7   318  57.9  54.5  88.3   29.07  1851
2017-05-28 17:00   7.4   7.6   299  62.2  57.1  83.1   29.07  2096
2017-05-28 16:00   1.7   2.1   280  63.1  58.6  85.0   29.07  1400
2017-05-28 15:00   2.3   3.9    69  61.9  58.3  87.8   29.07   946
2017-05-28 14:00   6.0   8.9    89  59.2  57.4  93.6   29.08   592
2017-05-28 13:00  11.7  13.2   343  55.8  53.9  93.4   29.13   376
2017-05-28 12:00  13.6  14.6   343  57.2  52.6  84.4   29.14   634
2017-05-28 11:00   2.7   4.1   274  59.7  54.7  83.4   29.11  1277
2017-05-28 10:00   1.4   2.1   228  59.5  53.7  80.8   29.12   462
2017-05-28 09:00   4.5   6.6   204  59.2  54.8  85.1   29.12   795
2017-05-28 08:00   6.2   8.2   168  64.4  55.3  72.1   29.11   319
2017-05-28 07:00   6.8   8.2   130  62.4  54.4  74.8   29.11   157
2017-05-28 06:00   5.8   9.5   140  63.0  52.5  68.2   29.12     3
2017-05-28 05:00   3.5   4.1   125  61.0  52.0  72.1   29.15     2
2017-05-28 04:00   5.8   6.6   113  61.3  56.8  84.7   29.16     2
2017-05-28 03:00   2.5   3.5   103  60.4  54.9  81.8   29.18     2
2017-05-28 02:00   1.4   1.9    45  60.6  55.0  81.4   29.19     2
2017-05-28 01:00   5.1   5.4   117  60.6  54.7  80.5   29.20     2
2017-05-28 00:00   1.4   1.4   163  58.6  52.3  79.3   29.22     2
2017-05-27 23:00   4.5   4.7   120  60.3  51.8  73.2   29.21     2
2017-05-27 22:00   0.2   0.4   354  59.7  52.5  76.7   29.21     2
2017-05-27 21:00   1.7   2.3    57  62.1  54.2  75.0   29.22    65
2017-05-27 20:00   5.4   6.4   352  61.3  52.1  71.2   29.23   798
2017-05-27 19:00   8.7   9.7   347  61.9  52.3  70.6   29.22  1702
2017-05-27 18:00   8.6   8.7   347  63.5  52.8  67.7   29.23  1999
2017-05-27 17:00   9.1  10.7   352  59.9  52.4  76.0   29.26  1989
2017-05-27 16:00  10.3  12.2   345  59.5  52.7  77.7   29.27  2096
2017-05-27 15:00   9.3   9.9   329  60.4  53.7  78.1   29.27   734
2017-05-27 14:00   7.0   7.4   322  60.4  53.8  78.4   29.28  2163
2017-05-27 13:00   5.4   6.0   289  58.8  54.3  84.8   29.28  2171
2017-05-27 12:00   2.5   2.9   271  57.6  53.7  86.8   29.28  2141
2017-05-27 11:00   4.7   5.2   326  56.5  52.3  85.8   29.29  2052
2017-05-27 10:00   6.4   6.8   339  55.0  52.4  90.6   29.29  1914
2017-05-27 09:00   1.6   1.9    24  61.7  53.3  73.5   29.29  1729
2017-05-27 08:00   3.7   4.3    55  58.5  52.2  79.3   29.27  1363
2017-05-27 07:00   7.6   8.9    84  53.2  50.1  88.8   29.26   490
2017-05-27 06:00   3.7   5.4    51  52.2  50.4  93.7   29.25     7
2017-05-27 05:00   6.4   7.2    77  53.2  51.6  94.1   29.24     2
2017-05-27 04:00   4.1   4.9    43  53.1  51.1  92.9   29.25     2
2017-05-27 03:00   3.1   3.9   345  54.0  51.7  91.8   29.25     2
2017-05-27 02:00   5.8   6.4    71  53.6  51.8  93.6   29.24     2
2017-05-27 01:00   2.7   2.9     1  53.8  52.1  94.1   29.24     2
2017-05-27 00:00   1.9   2.1    36  55.2  53.5  93.9   29.23     2
2017-05-26 23:00   2.3   2.7   348  56.7  54.4  91.9   29.24     2
2017-05-26 22:00   3.1   3.5    95  56.5  53.3  89.1   29.22     2
2017-05-26 21:00   1.4   1.9    42  57.2  52.2  83.1   29.22     9
2017-05-26 20:00   2.9   3.7    63  55.0  51.8  88.8   29.23   118
2017-05-26 19:00   7.8   9.7   358  53.4  50.3  89.1   29.23   412
2017-05-26 18:00   9.1   9.9   302  53.2  50.5  90.3   29.24  1220
2017-05-26 17:00   2.1   2.7   341  55.8  50.9  83.5   29.20  1170
2017-05-26 16:00   5.2   6.4   279  51.8  49.8  92.9   29.23   863
2017-05-26 15:00   4.9   5.4   270  52.9  50.6  91.9   29.22  1522
2017-05-26 14:00   2.7   3.5   223  53.4  50.4  89.3   29.22  1412
2017-05-26 13:00   4.1   4.5   251  51.3  49.2  92.5   29.25  1963
2017-05-26 12:00   4.1   4.7   284  51.4  49.4  92.6   29.25  2074
2017-05-26 11:00   5.1   5.6   350  50.2  49.1  96.0   29.24  2241
2017-05-26 10:00   1.7   3.3   108  59.0  52.0  77.3   29.23  2006
2017-05-26 09:00   5.8   7.4    93  54.3  50.5  86.6   29.23  1737
2017-05-26 08:00   4.7   6.0    80  52.9  51.0  93.1   29.22  1425
2017-05-26 07:00   4.9   6.6    35  50.7  50.5  99.0   29.20   763
2017-05-26 06:00   2.9   4.5    17  48.6  48.3  98.9   29.19     6
2017-05-26 05:00  11.1  12.6   351  48.0  47.6  98.4   29.17     2
2017-05-26 04:00   9.9  11.7   347  50.0  49.4  97.7   29.14     2
2017-05-26 03:00  11.7  13.2   344  50.0  49.4  97.6   29.12     2
2017-05-26 02:00  10.1  11.5   346  50.4  49.7  97.5   29.11     2
2017-05-26 01:00  10.5  12.2   355  50.5  49.6  96.7   29.09     2
2017-05-26 00:00   8.6   9.5   347  51.8  50.7  96.0   29.08     2
2017-05-25 23:00   8.4   8.9   351  52.5  50.8  93.8   29.07     2
2017-05-25 22:00   8.7  10.5    18  55.2  52.8  91.3   29.03     2
2017-05-25 21:00  14.6  15.2   346  52.9  50.8  92.6   29.01   137
2017-05-25 20:00  15.6  17.1   346  53.2  50.0  88.7   28.98  1142
2017-05-25 19:00  17.5  21.2   349  55.0  50.6  84.8   28.98  1898
2017-05-25 18:00  18.9  22.7   345  55.0  50.9  85.9   28.97  2291
2017-05-25 17:00  13.6  15.9   346  55.0  51.1  86.5   28.96  1575
2017-05-25 16:00  16.9  18.7   345  55.0  51.0  86.2   28.95  1231
2017-05-25 15:00  12.2  14.0   348  55.0  51.7  88.2   28.95   615
2017-05-25 14:00  14.4  15.0   344  54.7  51.6  89.1   28.95   976
2017-05-25 13:00  10.5  12.6    41  64.4  55.0  71.1   28.95  1535
2017-05-25 12:00   7.2   9.3    35  62.2  54.6  75.8   28.95   909
2017-05-25 11:00   6.8   8.4    48  60.8  54.0  77.9   28.95   509
2017-05-25 10:00   9.7  12.4    65  59.2  53.7  81.7   28.94   420
2017-05-25 09:00  11.5  14.0    64  58.5  53.6  83.8   28.93  1202
2017-05-25 08:00   9.3  11.5    43  56.7  53.7  89.8   28.93   248
2017-05-25 07:00   6.2   8.0    44  56.5  53.7  90.4   28.92   127
2017-05-25 06:00   7.8   8.9    63  56.3  53.9  91.5   28.91     3
2017-05-25 05:00  10.7  13.2    62  55.8  53.6  92.5   28.89     2
2017-05-25 04:00  12.1  16.3    77  56.5  54.1  91.5   28.89     2
2017-05-25 03:00  10.5  12.8    65  56.5  54.2  91.8   28.92     2
2017-05-25 02:00  11.1  16.3    70  59.0  52.3  78.2   28.93     2
2017-05-25 01:00  10.1  13.8    70  61.0  51.2  69.8   28.93     2
2017-05-25 00:00  11.3  14.6    65  61.9  52.5  71.0   28.92     2
2017-05-24 23:00   8.2  11.1    70  62.8  53.5  71.3   28.93     2
2017-05-24 22:00   6.4   8.2    62  63.3  54.0  71.4   28.93     2
2017-05-24 21:00   8.6  11.7    76  64.6  54.3  69.0   28.93    19
2017-05-24 20:00   5.8   8.2    82  66.0  54.0  64.8   28.93    74